Location: Newark
(44.9333°N, 0.5667°E)
Time: 20:33:56
(UTC+00:00)

N. Korean satellite - Pass Details

Date: 18 December 2019
Orbit: 454 x 507 km, 97.2° (Epoch: 28 January)

Event Time Altitude Azimuth Distance (km) Brightness Sun altitude
Rises 16:53:49 0° 166° (SSE) 2,589 10.4 -6.4°
Reaches altitude 10° 16:55:54 10° 166° (SSE) 1,705 9.5 -6.7°
Maximum altitude 16:59:35 87° 78° (ENE) 505 6.6 -7.3°
Drops below altitude 10° 17:03:14 10° 349° (NNW) 1,695 9.2 -7.9°
Sets 17:05:18 0° 349° (NNW) 2,573 10.1 -8.2°
